User: anonymous   Login
Location: Helsinki
(60.1699°N, 24.9384°E)
Time: 09:26:34
(UTC+02:00)
Language:

ESTCUBE 1 - Orbit

View from above orbital plane
View from above orbital plane
View from above satellite
View from above satellite

Ground track
Ground track

The orbit data is extracted from the following two-line orbital elements,

1 39161U 13021C   22333.75196407  .00000924  00000-0  15038-3 0  9994
2 39161  97.8946  46.6024 0008335 251.3836 108.6442 14.73313750513800
Epoch (UTC): 29 November 2022 18:02:49
Eccentricity: 0.0008335
inclination: 97.8946°
perigee height: 644 km
apogee height: 656 km
right ascension of ascending node: 46.6024°
argument of perigee: 251.3836°
revolutions per day: 14.73313750
mean anomaly at epoch: 108.6442°
orbit number at epoch: 51380

The dashed part of the orbit path shows where the satellite is in the earth's shadow,  

DLR